• In Denmark
  • List of Countries
  • For 7 days
  • Water Temperature
  • Satellite Maps
  • Weather Map
  • Weather Widgets
  • user-avatar
    Login

    Hourly Weather Yeghegnadzor

    Today, 19 June, Tuesday

    Time Temperature Precipitation Wind Pressure Humidity
    00:00 +18°C° 0 mm 2 mps 649 mmHg 60%
    01:00 +18°C° 0 mm 1 mps 649 mmHg 60%
    02:00 +18°C° 0 mm 1 mps 649 mmHg 59%
    03:00 +16°C° 0 mm 1 mps 649 mmHg 59%
    04:00 +18°C° 0 mm 1 mps 650 mmHg 57%
    05:00 +19°C° 0 mm 1 mps 651 mmHg 55%
    06:00 +20°C° 0 mm 1 mps 651 mmHg 54%
    07:00 +21°C° 0 mm 1 mps 652 mmHg 50%
    08:00 +23°C° 0 mm 2 mps 652 mmHg 45%
    09:00 +24°C° 0 mm 2 mps 653 mmHg 41%
    10:00 +25°C° 0.1 mm 2 mps 653 mmHg 40%
    11:00 +26°C° 0.1 mm 2 mps 653 mmHg 38%
    12:00 +27°C° 0.1 mm 3 mps 653 mmHg 36%
    13:00 +28°C° 0.1 mm 3 mps 653 mmHg 35%
    14:00 +28°C° 0.1 mm 3 mps 653 mmHg 35%
    15:00 +28°C° 0.1 mm 3 mps 653 mmHg 34%
    16:00 +28°C° 0.1 mm 2 mps 652 mmHg 37%
    17:00 +27°C° 0.1 mm 2 mps 652 mmHg 40%
    18:00 +27°C° 0.1 mm 2 mps 652 mmHg 43%
    19:00 +25°C° 0 mm 2 mps 652 mmHg 48%
    20:00 +23°C° 0 mm 2 mps 652 mmHg 54%
    21:00 +20°C° 0 mm 2 mps 652 mmHg 59%
    22:00 +19°C° 0 mm 2 mps 652 mmHg 59%
    23:00 +19°C° 0 mm 2 mps 652 mmHg 60%

    Tomorrow, 20 June, Wednesday

    Time Temperature Precipitation Wind Pressure Humidity
    00:00 +18°C° 0 mm 2 mps 652 mmHg 61%
    01:00 +18°C° 0 mm 2 mps 652 mmHg 61%
    02:00 +18°C° 0 mm 2 mps 652 mmHg 61%
    03:00 +17°C° 0 mm 2 mps 652 mmHg 60%
    04:00 +18°C° 0 mm 2 mps 652 mmHg 59%
    05:00 +19°C° 0 mm 2 mps 653 mmHg 57%
    06:00 +20°C° 0 mm 2 mps 653 mmHg 56%
    07:00 +21°C° 0 mm 2 mps 654 mmHg 51%
    08:00 +24°C° 0 mm 2 mps 654 mmHg 45%
    09:00 +26°C° 0 mm 2 mps 654 mmHg 40%
    10:00 +27°C° 0.1 mm 2 mps 654 mmHg 38%
    11:00 +28°C° 0.1 mm 2 mps 654 mmHg 36%
    12:00 +29°C° 0.1 mm 3 mps 654 mmHg 34%
    13:00 +29°C° 0.2 mm 3 mps 654 mmHg 33%
    14:00 +29°C° 0.2 mm 3 mps 654 mmHg 33%
    15:00 +29°C° 0.2 mm 3 mps 654 mmHg 32%
    16:00 +29°C° 0.1 mm 2 mps 653 mmHg 35%
    17:00 +28°C° 0.1 mm 2 mps 653 mmHg 39%
    18:00 +27°C° 0.1 mm 2 mps 653 mmHg 43%
    19:00 +25°C° 0.1 mm 2 mps 653 mmHg 50%
    20:00 +23°C° 0.1 mm 2 mps 653 mmHg 57%
    21:00 +20°C° 0.1 mm 3 mps 653 mmHg 64%
    22:00 +19°C° 0.1 mm 3 mps 653 mmHg 65%
    23:00 +19°C° 0.1 mm 3 mps 653 mmHg 66%

    Day after tomorrow, 21 June, Thursday

    Time Temperature Precipitation Wind Pressure Humidity
    00:00 +18°C° 0.1 mm 2 mps 653 mmHg 67%
    01:00 +18°C° 0.1 mm 2 mps 653 mmHg 67%
    02:00 +18°C° 0.1 mm 2 mps 653 mmHg 67%
    03:00 +17°C° 0.1 mm 2 mps 653 mmHg 67%
    04:00 +18°C° 0 mm 2 mps 654 mmHg 64%
    05:00 +19°C° 0 mm 2 mps 654 mmHg 62%
    06:00 +20°C° 0 mm 2 mps 654 mmHg 60%
    07:00 +21°C° 0 mm 2 mps 655 mmHg 54%
    08:00 +24°C° 0 mm 2 mps 655 mmHg 47%
    09:00 +26°C° 0 mm 2 mps 655 mmHg 41%
    10:00 +27°C° 0 mm 2 mps 655 mmHg 38%
    11:00 +28°C° 0 mm 2 mps 655 mmHg 35%
    12:00 +29°C° 0 mm 3 mps 655 mmHg 32%
    13:00 +30°C° 0 mm 3 mps 654 mmHg 31%
    14:00 +30°C° 0 mm 3 mps 654 mmHg 30%
    15:00 +30°C° 0 mm 3 mps 654 mmHg 29%
    16:00 +30°C° 0 mm 3 mps 653 mmHg 32%
    17:00 +29°C° 0 mm 2 mps 653 mmHg 35%
    18:00 +29°C° 0 mm 2 mps 653 mmHg 38%
    19:00 +26°C° 0 mm 2 mps 653 mmHg 45%
    20:00 +24°C° 0 mm 3 mps 652 mmHg 52%
    21:00 +21°C° 0 mm 3 mps 652 mmHg 58%
    22:00 +20°C° 0 mm 3 mps 652 mmHg 58%
    23:00 +20°C° 0 mm 3 mps 652 mmHg 58%

    22 June, Friday

    Time Temperature Precipitation Wind Pressure Humidity
    00:00 +19°C° 0 mm 3 mps 652 mmHg 58%
    01:00 +19°C° 0 mm 3 mps 652 mmHg 56%
    02:00 +19°C° 0 mm 2 mps 651 mmHg 55%
    03:00 +18°C° 0 mm 2 mps 651 mmHg 54%
    04:00 +19°C° 0 mm 2 mps 651 mmHg 53%
    05:00 +20°C° 0 mm 2 mps 652 mmHg 52%
    06:00 +21°C° 0 mm 2 mps 652 mmHg 51%
    07:00 +24°C° 0 mm 2 mps 652 mmHg 45%
    08:00 +25°C° 0 mm 2 mps 652 mmHg 40%
    09:00 +27°C° 0 mm 2 mps 653 mmHg 35%
    10:00 +28°C° 0 mm 2 mps 652 mmHg 33%
    11:00 +29°C° 0 mm 3 mps 652 mmHg 31%
    12:00 +30°C° 0 mm 3 mps 652 mmHg 29%
    13:00 +30°C° 0 mm 3 mps 652 mmHg 28%
    14:00 +31°C° 0 mm 3 mps 651 mmHg 28%
    15:00 +31°C° 0 mm 3 mps 651 mmHg 27%
    16:00 +30°C° 0 mm 3 mps 651 mmHg 31%
    17:00 +30°C° 0 mm 2 mps 651 mmHg 34%
    18:00 +29°C° 0 mm 2 mps 651 mmHg 37%
    19:00 +27°C° 0 mm 2 mps 651 mmHg 43%
    20:00 +25°C° 0 mm 2 mps 651 mmHg 50%
    21:00 +21°C° 0 mm 3 mps 650 mmHg 57%
    22:00 +21°C° 0 mm 3 mps 650 mmHg 58%
    23:00 +20°C° 0 mm 2 mps 650 mmHg 59%

    23 June, Saturday

    Time Temperature Precipitation Wind Pressure Humidity
    00:00 +20°C° 0 mm 2 mps 650 mmHg 59%
    01:00 +19°C° 0 mm 2 mps 650 mmHg 59%
    02:00 +19°C° 0 mm 2 mps 650 mmHg 59%
    03:00 +19°C° 0 mm 2 mps 650 mmHg 58%
    04:00 +19°C° 0 mm 2 mps 650 mmHg 57%
    05:00 +21°C° 0 mm 1 mps 651 mmHg 55%
    06:00 +22°C° 0 mm 1 mps 651 mmHg 54%
    07:00 +24°C° 0 mm 1 mps 652 mmHg 48%
    08:00 +25°C° 0 mm 2 mps 652 mmHg 43%
    09:00 +27°C° 0 mm 2 mps 652 mmHg 37%
    10:00 +28°C° 0 mm 2 mps 652 mmHg 35%
    11:00 +29°C° 0 mm 2 mps 652 mmHg 33%
    12:00 +30°C° 0 mm 2 mps 652 mmHg 31%
    13:00 +30°C° 0.1 mm 2 mps 652 mmHg 30%
    14:00 +31°C° 0.1 mm 2 mps 652 mmHg 29%
    15:00 +31°C° 0.1 mm 2 mps 651 mmHg 29%
    16:00 +30°C° 0.1 mm 2 mps 651 mmHg 31%
    17:00 +30°C° 0.1 mm 2 mps 651 mmHg 33%
    18:00 +29°C° 0.1 mm 1 mps 651 mmHg 35%
    19:00 +27°C° 0 mm 2 mps 651 mmHg 42%
    20:00 +25°C° 0 mm 2 mps 651 mmHg 49%
    21:00 +23°C° 0 mm 2 mps 651 mmHg 55%
    22:00 +21°C° 0 mm 2 mps 651 mmHg 56%
    23:00 +21°C° 0 mm 2 mps 651 mmHg 58%

    24 June, Sunday

    Time Temperature Precipitation Wind Pressure Humidity
    00:00 +20°C° 0 mm 2 mps 651 mmHg 59%
    01:00 +20°C° 0 mm 2 mps 651 mmHg 58%
    02:00 +20°C° 0 mm 2 mps 651 mmHg 57%
    03:00 +19°C° 0 mm 2 mps 651 mmHg 56%
    04:00 +20°C° 0 mm 2 mps 652 mmHg 54%
    05:00 +21°C° 0 mm 2 mps 652 mmHg 53%
    06:00 +23°C° 0 mm 2 mps 652 mmHg 51%
    07:00 +25°C° 0 mm 2 mps 653 mmHg 45%
    08:00 +27°C° 0 mm 2 mps 653 mmHg 39%
    09:00 +29°C° 0 mm 2 mps 654 mmHg 33%
    10:00 +30°C° 0 mm 2 mps 654 mmHg 31%
    11:00 +31°C° 0 mm 2 mps 654 mmHg 28%
    12:00 +32°C° 0 mm 2 mps 654 mmHg 26%
    13:00 +34°C° 0 mm 3 mps 654 mmHg 25%
    14:00 +34°C° 0 mm 3 mps 653 mmHg 25%
    15:00 +34°C° 0 mm 3 mps 653 mmHg 25%
    16:00 +34°C° 0 mm 3 mps 653 mmHg 29%
    17:00 +32°C° 0 mm 2 mps 653 mmHg 33%
    18:00 +31°C° 0 mm 2 mps 653 mmHg 37%
    19:00 +29°C° 0 mm 2 mps 653 mmHg 44%
    20:00 +26°C° 0 mm 3 mps 653 mmHg 51%
    21:00 +24°C° 0 mm 3 mps 652 mmHg 58%
    22:00 +22°C° 0 mm 3 mps 653 mmHg 58%
    23:00 +22°C° 0 mm 3 mps 653 mmHg 57%
    Show more